Regional Weather Roundup
Issued by NWS Sterling, VA

Home | Current Version | Previous Version | Text Only | Print | Product List | Glossary Off
Versions: 1 2 3 4 5 6 7 8 9 10 11 12 13 14 15 16 17 18 19 20 21 22 23 24 25 26 27 28 29 30 31 32 33 34 35 36 37 38 39 40 41 42 43 44 45 46

000
ASUS41 KLWX 261410
RWRLWX

REGIONAL WEATHER ROUNDUP
NATIONAL WEATHER SERVICE BALTIMORE MD/WASHINGTON DC
900 AM EST THU FEB 26 2015

Note: "FAIR" indicates few or no clouds below 12,000 feet
with no significant weather and/or obstructions to visibility.
 TC=TEMPERATURE CELSIUS

 * =Non NWS site. Station does not report precipitation (e.g. rain,
    snow, etc.), thunder, or fog.

DCZ001-MDZ009-015-VAZ040>042-051-053>054-261500-
WASHINGTON METRO

CITY           SKY/WX    TMP DP  RH WIND       PRES   REMARKS
WASHINGTON NAT LGT SNOW  32  27  81 NE9       29.94R VSB 3/4 WCI  24
DULLES         LGT SNOW  30  27  86 N12       29.92R FOG     WCI  21
ANDREWS AFB    LGT SNOW  28  27  93 NE10      29.91S VSB 1   WCI  19
FT BELVOIR     LGT SNOW  32  28  86 N3        29.93S VSB 1
QUANTICO       LGT SNOW  31  27  85 NE12      29.93S VSB 3/4 WCI  22
COLLEGE PARK*  CLOUDY    30  28  93 NE5       29.94R
LEESBURG*      LGT SNOW  30  30 100 N9        29.93S WCI  22
GAITHERSBURG*  CLOUDY    28  25  86 NE7       29.96R VSB 1

$$

MDZ006>007-011-014-261500-
BALTIMORE METRO

CITY           SKY/WX    TMP DP  RH WIND       PRES   REMARKS
BWI AIRPORT    LGT SNOW  27  24  89 NE12      29.94R VSB 3/4 WCI  17
MD SCIENCE CTR   N/A     27  23  85 MISG      29.95R
MARTIN STATE   LGT SNOW  28  27  93 NE3       29.98R VSB 1
ANNAPOLIS      SNOW      28  25  88 N10       29.94R VSB 1/2 WCI  19
FORT MEADE*      N/A     28  27  93 NE10G16   29.97R WCI  19

$$

MDZ012-015-019>023-261500-
MARYLAND EASTERN SHORE

CITY           SKY/WX    TMP DP  RH WIND       PRES   REMARKS
OCEAN CITY     SNOW      31  29  92 N17G31    29.84R VSB 1/2 WCI  19
SALISBURY      SNOW      33  28  81 N14       29.86R VSB 1/2 WCI  23
BAY BRIDGE AP* LGT SNOW  28  28 100 N7        29.94S VSB 3/4
CAMBRIDGE*     CLOUDY    32  30  93 N10       29.89S VSB 1   WCI  24
EASTON*        LGT SNOW  30  30 100 NE8       29.95R VSB 3/4 WCI  23

$$

MDZ017>025-261500-
SOUTHERN MARYLAND

CITY           SKY/WX    TMP DP  RH WIND       PRES   REMARKS
PATUXENT RIVER LGT SNOW  30  27  86 N15       29.88S VSB 3/4 WCI  19
ST INIGOES     SNOW      31  26  82 N10G21    29.87S VSB 1/2 WCI  22
LEONARDTOWN*   CLOUDY    30  28  93 NE6       29.90S VSB 3/4

$$

MDZ003>005-261500-
NORTH CENTRAL MARYLAND

CITY           SKY/WX    TMP DP  RH WIND       PRES   REMARKS
FREDERICK*     CLOUDY    28  21  74 N10       29.98R WCI  19
HAGERSTOWN APT LGT SNOW  26  21  81 N9        29.93R WCI  17
WESTMINSTER*   LGT SNOW  23  19  86 NE6       29.93R

$$

MDZ501>502-261500-
WESTERN MARYLAND

CITY           SKY/WX    TMP DP  RH WIND       PRES   REMARKS
OAKLAND*       CLOUDY    21  19  93 E7        29.76R
CUMBERLAND*    PTSUNNY   30  19  64 E6        29.96R

$$

VAZ025>031-261500-
SHENANDOAH VALLEY

CITY           SKY/WX    TMP DP  RH WIND       PRES   REMARKS
WINCHESTER*    MIX PCPN  32  25  74 NE6       29.91R
FRONT ROYAL*   CLOUDY    28  27  93 N6        29.90R
LURAY*         FLURRIES  32  30  93 N8        29.89R WCI  25
NEW MARKET*    CLOUDY    28  24  86 N6        29.89R
STAUNTON*      LGT SNOW  29  25  83 N9        29.86S WCI  21
WAYNESBORO*    CLOUDY    26  25  93 N8        29.83R WCI  18

$$

WVZ021-048>050-054>055-261500-
EASTERN WEST VIRGINIA PANHANDLE

CITY           SKY/WX    TMP DP  RH WIND       PRES   REMARKS
MARTINSBURG    LGT SNOW  29  22  75 N9        29.92S WCI  20
PETERSBURG*    NOT AVBL

$$

VAZ036>039-050-261500-
CENTRAL FOOTHILLS

CITY           SKY/WX    TMP DP  RH WIND       PRES   REMARKS
CHARLOTTESVILL LGT SNOW  29  26  89 N6        29.87R FOG
CULPEPER*      LGT SNOW  30  30 100 N7        29.92R
ORANGE*        LGT SNOW  32  30  93 NW7       29.91R
GORDONSVILLE*  CLOUDY    30  27  88 NE8       29.88S FOG     WCI  22
WARRENTON*     LGT SNOW  32  32 100 N5        29.90S

$$

VAZ055>057-261500-
NORTH AND CENTRAL PIEDMONT

CITY           SKY/WX    TMP DP  RH WIND       PRES   REMARKS
FREDERICKSBRG* LGT SNOW  32  32 100 N7        29.90R VSB 3/4
STAFFORD*      LGT SNOW  30  32 100 NE6       29.94S

$$

NCZ024-NYZ072-PAZ021-071-VAZ022-071-261500-
OTHER REGIONAL OBSERVATIONS

CITY           SKY/WX    TMP DP  RH WIND       PRES   REMARKS
NEW YORK CITY  CLOUDY    22   4  46 NE12G18   30.02F WCI  10
PHILADELPHIA   CLOUDY    28  12  51 NE14      29.98R WCI  17
PITTSBURGH     CLOUDY    16   5  62 N9        29.90R WCI   4
ROANOKE        CLOUDY    30  26  85 N8        29.86R WCI  22
RICHMOND       LGT SNOW  32  27  81 N16G23    29.84R FOG     WCI  21
RALEIGH        DRIZZLE   32  28  85 NE10      29.80R FOG     WCI  24

$$

ANZ530>537-261500-
MARINE OBSERVATIONS

STATION/POSITION TIME  TEMP    WIND        PRES
                       AIR SEA DIR/SP/G
                 (UTC) (F)     (DEG/KT/KT) (MB)
THOMAS PT LIGHT  1400   28 31   20/ 16/ 17 1014.5R
BALT KEY BRIDGE  1300   27      20/ 10/ 12 1013.5R
COVE POINT       1300   28      30/ 15/ 18 1011.8R
LEWISETTA        1300   30 32   30/  5/ 15 1011.0R
SOLOMONS ISLAND  1300      32                N/A

$$




USA.gov is the U.S. government's official web portal to all federal, state and local government web resources and services.